Overview Statistics Trail Chart Weather Telemetry Raw packets
 

This is the latest recevied weather packets stored in our database for station/object PA5MB-15. If no packets are shown the sender has not sent any weather packets the latest 10 day(s).

<< 40 41 42 43 44 45 46 >>
Time Temp. Humidity Pressure Rain* Wind** Luminosity Snow
1777762821 14.44° C 98% 1014 hPa 2.03 mm - 0 W/m² -
1777762534 14.44° C 98% 1014.1 hPa 2.03 mm - 0 W/m² -
1777762247 14.44° C 98% 1014.2 hPa 2.03 mm - 0 W/m² -
1777761957 14.44° C 98% 1014.1 hPa 1.78 mm - 0 W/m² -
1777761632 14.44° C 98% 1014.1 hPa 1.78 mm - 0 W/m² -
1777761335 14.44° C 98% 1013.9 hPa 1.78 mm - 0 W/m² -
1777761032 14.44° C 98% 1014 hPa 1.27 mm - 0 W/m² -
1777760734 14.44° C 97% 1014.6 hPa 0.76 mm - 0 W/m² -
1777760430 14.44° C 97% 1014.6 hPa 0.76 mm - 0 W/m² -
1777760135 14.44° C 97% 1014.5 hPa 0.51 mm - 0 W/m² -
1777759832 14.44° C 97% 1014.5 hPa 0 mm - 0 W/m² -
1777759532 14.44° C 97% 1014.5 hPa 0 mm - 0 W/m² -
1777759235 14.44° C 97% 1014.5 hPa 0.25 mm - 0 W/m² -
1777758927 14.44° C 97% 1014.4 hPa 0.51 mm - 0 W/m² -
1777758634 14.44° C 97% 1014.4 hPa 0.76 mm - 0 W/m² -
1777758357 14.44° C 97% 1014.5 hPa 1.02 mm - 0 W/m² -
1777758036 14.44° C 97% 1014.6 hPa 1.27 mm - 0 W/m² -
1777757734 14.44° C 96% 1014.6 hPa 1.78 mm - 0 W/m² -
1777757433 14.44° C 96% 1014.6 hPa 3.3 mm - 0 W/m² -
1777757132 14.44° C 96% 1014.5 hPa 5.59 mm - 0 W/m² -
1777756832 14.44° C 96% 1014.5 hPa 6.35 mm - 0 W/m² -
1777756534 14.44° C 96% 1014.6 hPa 7.37 mm - 0 W/m² -
1777756222 14.44° C 96% 1014.8 hPa 7.62 mm - 0 W/m² -
1777755928 14.44° C 96% 1015 hPa 7.62 mm - 0 W/m² -
1777755635 14.44° C 96% 1015 hPa 7.37 mm - 0 W/m² -

* Rain latest hour (hover to see other rain measurements)
** Current wind speed in m/s (hover to see current wind gust speed)